Time,TemperatureF,DewpointF,PressureIn,WindDirection,WindDirectionDegrees,WindSpeedMPH,WindSpeedGustMPH,Humidity,HourlyPrecipIn,Conditions,Clouds,dailyrainin,SoftwareType,DateUTC
2013-03-02 00:02:00,29.0,24.0,30.06,NW,321,4.0,-999.0,81,-99.99,,,-99.99,,2013-03-02 05:02:00,
2013-03-02 00:12:00,29.0,24.0,30.06,NW,321,4.0,-999.0,81,-99.99,,,-99.99,,2013-03-02 05:12:00,
2013-03-02 00:22:00,29.0,24.0,30.06,NW,326,7.0,-999.0,80,-99.99,,,-99.99,,2013-03-02 05:22:00,
2013-03-02 00:32:00,29.0,24.0,30.04,NNW,343,3.0,-999.0,81,-99.99,,,-99.99,,2013-03-02 05:32:00,
2013-03-02 00:42:00,29.0,24.0,30.04,NNW,343,3.0,-999.0,81,-99.99,,,-99.99,,2013-03-02 05:42:00,
2013-03-02 00:52:00,29.0,24.0,30.04,WNW,296,4.0,-999.0,80,-99.99,,,-99.99,,2013-03-02 05:52:00,
2013-03-02 01:02:00,29.0,23.0,30.04,NNE,19,7.0,-999.0,79,-99.99,,,-99.99,,2013-03-02 06:02:00,
2013-03-02 01:11:00,29.0,23.0,30.04,NNE,19,7.0,-999.0,79,-99.99,,,-99.99,,2013-03-02 06:11:00,
2013-03-02 01:21:00,28.0,23.0,30.05,North,360,7.0,-999.0,80,-99.99,,,-99.99,,2013-03-02 06:21:00,
2013-03-02 01:32:00,28.0,22.0,30.05,NW,306,8.0,-999.0,79,-99.99,,,-99.99,,2013-03-02 06:32:00,
2013-03-02 01:42:00,28.0,22.0,30.05,NW,306,8.0,-999.0,79,-99.99,,,-99.99,,2013-03-02 06:42:00,
2013-03-02 01:52:00,28.0,22.0,30.05,NW,313,8.0,-999.0,78,-99.99,,,-99.99,,2013-03-02 06:52:00,
2013-03-02 02:01:00,28.0,22.0,30.05,NNW,346,7.0,-999.0,78,-99.99,,,-99.99,,2013-03-02 07:01:00,
2013-03-02 02:11:00,28.0,22.0,30.05,NW,307,5.0,-999.0,79,-99.99,,,-99.99,,2013-03-02 07:11:00,
2013-03-02 02:21:00,28.0,22.0,30.05,NW,307,5.0,-999.0,79,-99.99,,,-99.99,,2013-03-02 07:21:00,
2013-03-02 02:32:00,28.0,22.0,30.05,WNW,292,6.0,-999.0,79,-99.99,,,-99.99,,2013-03-02 07:32:00,
2013-03-02 02:42:00,28.0,22.0,30.05,WNW,292,6.0,-999.0,79,-99.99,,,-99.99,,2013-03-02 07:42:00,
2013-03-02 02:51:00,28.0,23.0,30.04,NNW,337,2.0,-999.0,80,-99.99,,,-99.99,,2013-03-02 07:51:00,
2013-03-02 03:01:00,28.0,23.0,30.04,NNW,346,3.0,-999.0,80,-99.99,,,-99.99,,2013-03-02 08:01:00,
2013-03-02 03:11:00,28.0,23.0,30.04,NNW,346,3.0,-999.0,80,-99.99,,,-99.99,,2013-03-02 08:11:00,
2013-03-02 03:22:00,28.0,23.0,30.03,North,360,4.0,-999.0,81,-99.99,,,-99.99,,2013-03-02 08:22:00,
2013-03-02 03:32:00,28.0,23.0,30.03,NW,317,6.0,-999.0,81,-99.99,,,-99.99,,2013-03-02 08:32:00,
2013-03-02 03:42:00,28.0,23.0,30.03,NW,317,6.0,-999.0,81,-99.99,,,-99.99,,2013-03-02 08:42:00,
2013-03-02 03:52:00,28.0,23.0,30.02,NW,315,5.0,-999.0,81,-99.99,,,-99.99,,2013-03-02 08:52:00,
2013-03-02 04:02:00,28.0,23.0,30.02,NNW,336,5.0,-999.0,82,-99.99,,,-99.99,,2013-03-02 09:02:00,
2013-03-02 04:11:00,28.0,23.0,30.02,NNW,327,5.0,-999.0,82,-99.99,,,-99.99,,2013-03-02 09:11:00,
2013-03-02 04:22:00,28.0,23.0,30.02,NNW,327,5.0,-999.0,82,-99.99,,,-99.99,,2013-03-02 09:22:00,
2013-03-02 04:32:00,27.0,22.0,30.01,NNW,346,4.0,-999.0,82,-99.99,,,-99.99,,2013-03-02 09:32:00,
2013-03-02 04:42:00,27.0,22.0,30.01,NNW,346,4.0,-999.0,82,-99.99,,,-99.99,,2013-03-02 09:42:00,
2013-03-02 04:52:00,27.0,22.0,30.01,NW,325,3.0,-999.0,82,-99.99,,,-99.99,,2013-03-02 09:52:00,
2013-03-02 05:01:00,27.0,22.0,30.01,NNW,336,5.0,-999.0,82,-99.99,,,-99.99,,2013-03-02 10:01:00,
2013-03-02 05:16:00,27.0,22.0,30.01,NNW,336,5.0,-999.0,82,-99.99,,,-99.99,,2013-03-02 10:16:00,
2013-03-02 05:22:00,27.0,22.0,30.01,NNW,329,4.0,-999.0,82,-99.99,,,-99.99,,2013-03-02 10:22:00,
2013-03-02 05:32:00,27.0,23.0,30.01,NNW,338,5.0,-999.0,83,-99.99,,,-99.99,,2013-03-02 10:32:00,
2013-03-02 05:43:00,27.0,23.0,30.01,NNW,338,5.0,-999.0,83,-99.99,,,-99.99,,2013-03-02 10:43:00,
2013-03-02 05:52:00,27.0,23.0,30.00,North,5,5.0,-999.0,83,-99.99,,,-99.99,,2013-03-02 10:52:00,
2013-03-02 06:01:00,27.0,23.0,30.01,NW,307,7.0,-999.0,83,-99.99,,,-99.99,,2013-03-02 11:01:00,
2013-03-02 06:11:00,27.0,23.0,30.01,NW,307,7.0,-999.0,83,-99.99,,,-99.99,,2013-03-02 11:11:00,
2013-03-02 06:21:00,27.0,23.0,30.01,NW,310,7.0,-999.0,84,-99.99,,,-99.99,,2013-03-02 11:21:00,
2013-03-02 06:32:00,27.0,23.0,30.01,WNW,303,7.0,-999.0,85,-99.99,,,-99.99,,2013-03-02 11:32:00,
2013-03-02 06:42:00,27.0,23.0,30.01,WNW,303,7.0,-999.0,85,-99.99,,,-99.99,,2013-03-02 11:42:00,
2013-03-02 06:52:00,27.0,23.0,30.01,NNW,329,6.0,-999.0,85,-99.99,,,-99.99,,2013-03-02 11:52:00,
2013-03-02 07:02:00,27.0,23.0,30.01,NW,317,6.0,-999.0,86,-99.99,,,-99.99,,2013-03-02 12:02:00,
2013-03-02 07:11:00,27.0,23.0,30.01,NW,317,6.0,-999.0,86,-99.99,,,-99.99,,2013-03-02 12:11:00,
2013-03-02 07:22:00,27.0,23.0,30.01,NNW,334,5.0,-999.0,86,-99.99,,,-99.99,,2013-03-02 12:22:00,
2013-03-02 07:33:00,27.0,23.0,30.01,NW,321,6.0,-999.0,86,-99.99,,,-99.99,,2013-03-02 12:33:00,
2013-03-02 07:43:00,27.0,23.0,30.01,NW,321,6.0,-999.0,86,-99.99,,,-99.99,,2013-03-02 12:43:00,
2013-03-02 07:53:00,27.0,23.0,30.02,NNW,329,7.0,-999.0,86,-99.99,,,-99.99,,2013-03-02 12:53:00,
2013-03-02 08:01:00,27.0,23.0,30.02,NW,323,5.0,-999.0,86,-99.99,,,-99.99,,2013-03-02 13:01:00,
2013-03-02 08:11:00,27.0,23.0,30.02,NW,323,5.0,-999.0,86,-99.99,,,-99.99,,2013-03-02 13:11:00,
2013-03-02 08:22:00,27.0,24.0,30.02,NNW,335,4.0,-999.0,87,-99.99,,,-99.99,,2013-03-02 13:22:00,
2013-03-02 08:32:00,27.0,23.0,30.03,NW,317,6.0,-999.0,86,-99.99,,,-99.99,,2013-03-02 13:32:00,
2013-03-02 08:42:00,27.0,23.0,30.03,NW,317,6.0,-999.0,86,-99.99,,,-99.99,,2013-03-02 13:42:00,
2013-03-02 08:52:00,27.0,23.0,30.03,NNW,333,7.0,-999.0,85,-99.99,,,-99.99,,2013-03-02 13:52:00,
2013-03-02 09:01:00,27.0,23.0,30.03,NNW,340,7.0,-999.0,86,-99.99,,,-99.99,,2013-03-02 14:01:00,
2013-03-02 09:11:00,27.0,23.0,30.03,NNW,340,7.0,-999.0,86,-99.99,,,-99.99,,2013-03-02 14:11:00,
2013-03-02 09:22:00,27.0,23.0,30.03,NNW,327,8.0,-999.0,84,-99.99,,,-99.99,,2013-03-02 14:22:00,
2013-03-02 09:32:00,27.0,23.0,30.02,WNW,303,5.0,-999.0,83,-99.99,,,-99.99,,2013-03-02 14:32:00,
2013-03-02 09:42:00,27.0,23.0,30.02,WNW,303,5.0,-999.0,83,-99.99,,,-99.99,,2013-03-02 14:42:00,
2013-03-02 09:52:00,28.0,24.0,30.02,NW,304,7.0,-999.0,83,-99.99,,,-99.99,,2013-03-02 14:52:00,
2013-03-02 10:02:00,28.0,24.0,30.02,North,351,6.0,-999.0,83,-99.99,,,-99.99,,2013-03-02 15:02:00,
2013-03-02 10:11:00,28.0,24.0,30.02,North,351,6.0,-999.0,83,-99.99,,,-99.99,,2013-03-02 15:11:00,
2013-03-02 10:22:00,28.0,23.0,30.02,NNW,336,3.0,-999.0,81,-99.99,,,-99.99,,2013-03-02 15:22:00,
2013-03-02 10:32:00,28.0,22.0,30.03,NNW,329,6.0,-999.0,79,-99.99,,,-99.99,,2013-03-02 15:32:00,
2013-03-02 10:42:00,28.0,22.0,30.03,NNW,329,6.0,-999.0,79,-99.99,,,-99.99,,2013-03-02 15:42:00,
2013-03-02 10:52:00,29.0,24.0,30.03,NNW,327,5.0,-999.0,80,-99.99,,,-99.99,,2013-03-02 15:52:00,
2013-03-02 11:02:00,29.0,22.0,30.02,NNE,26,6.0,-999.0,76,-99.99,,,-99.99,,2013-03-02 16:02:00,
2013-03-02 11:11:00,29.0,22.0,30.02,NNE,26,6.0,-999.0,76,-99.99,,,-99.99,,2013-03-02 16:11:00,
2013-03-02 11:21:00,30.0,23.0,30.02,NW,319,6.0,-999.0,74,-99.99,,,-99.99,,2013-03-02 16:21:00,
2013-03-02 11:32:00,30.0,23.0,30.02,WNW,296,8.0,-999.0,74,-99.99,,,-99.99,,2013-03-02 16:32:00,
2013-03-02 11:42:00,30.0,23.0,30.02,WNW,296,8.0,-999.0,74,-99.99,,,-99.99,,2013-03-02 16:42:00,
2013-03-02 11:52:00,29.0,22.0,30.03,NW,319,8.0,-999.0,76,-99.99,,,-99.99,,2013-03-02 16:52:00,
2013-03-02 12:01:00,29.0,22.0,30.03,WNW,284,9.0,-999.0,76,-99.99,,,-99.99,,2013-03-02 17:01:00,
2013-03-02 12:11:00,29.0,22.0,30.03,WNW,284,9.0,-999.0,76,-99.99,,,-99.99,,2013-03-02 17:11:00,
2013-03-02 12:21:00,30.0,22.0,30.02,NNW,348,7.0,-999.0,73,-99.99,,,-99.99,,2013-03-02 17:21:00,
2013-03-02 12:32:00,30.0,23.0,30.02,NNE,24,7.0,-999.0,75,-99.99,,,-99.99,,2013-03-02 17:32:00,
2013-03-02 12:42:00,30.0,23.0,30.02,NNE,24,7.0,-999.0,75,-99.99,,,-99.99,,2013-03-02 17:42:00,
2013-03-02 12:52:00,29.0,22.0,30.02,WNW,289,9.0,-999.0,74,-99.99,,,-99.99,,2013-03-02 17:52:00,
2013-03-02 13:02:00,29.0,21.0,30.01,NNW,341,9.0,-999.0,71,-99.99,,,-99.99,,2013-03-02 18:02:00,
2013-03-02 13:11:00,29.0,21.0,30.01,NNW,341,9.0,-999.0,71,-99.99,,,-99.99,,2013-03-02 18:11:00,
2013-03-02 13:22:00,30.0,22.0,30.01,WNW,290,10.0,-999.0,73,-99.99,,,-99.99,,2013-03-02 18:22:00,
2013-03-02 13:32:00,31.0,22.0,30.00,WNW,298,14.0,-999.0,70,-99.99,,,-99.99,,2013-03-02 18:32:00,
2013-03-02 13:42:00,31.0,22.0,30.00,WNW,298,14.0,-999.0,70,-99.99,,,-99.99,,2013-03-02 18:42:00,
2013-03-02 13:52:00,31.0,22.0,30.00,NW,316,13.0,-999.0,68,-99.99,,,-99.99,,2013-03-02 18:52:00,
2013-03-02 14:02:00,29.0,21.0,30.00,NNW,333,12.0,-999.0,72,-99.99,,,-99.99,,2013-03-02 19:02:00,
2013-03-02 14:12:00,29.0,21.0,30.00,NNW,333,12.0,-999.0,72,-99.99,,,-99.99,,2013-03-02 19:12:00,
2013-03-02 14:22:00,31.0,23.0,30.00,West,279,13.0,-999.0,71,-99.99,,,-99.99,,2013-03-02 19:22:00,
2013-03-02 14:32:00,29.0,20.0,29.99,NW,311,14.0,-999.0,70,-99.99,,,-99.99,,2013-03-02 19:32:00,
2013-03-02 14:42:00,29.0,20.0,29.99,NW,311,14.0,-999.0,70,-99.99,,,-99.99,,2013-03-02 19:42:00,
2013-03-02 14:52:00,29.0,21.0,30.00,NW,308,16.0,-999.0,71,-99.99,,,-99.99,,2013-03-02 19:52:00,
2013-03-02 15:02:00,28.0,20.0,30.00,WNW,298,16.0,-999.0,72,-99.99,,,-99.99,,2013-03-02 20:02:00,
2013-03-02 15:11:00,28.0,20.0,30.00,WNW,298,16.0,-999.0,72,-99.99,,,-99.99,,2013-03-02 20:11:00,
2013-03-02 15:22:00,28.0,20.0,30.00,WNW,286,14.0,-999.0,72,-99.99,,,-99.99,,2013-03-02 20:22:00,
2013-03-02 15:32:00,28.0,21.0,30.00,NNW,331,7.0,-999.0,74,-99.99,,,-99.99,,2013-03-02 20:32:00,
2013-03-02 15:42:00,28.0,21.0,30.00,NNW,331,7.0,-999.0,74,-99.99,,,-99.99,,2013-03-02 20:42:00,
2013-03-02 15:52:00,28.0,20.0,30.00,NNW,337,12.0,-999.0,70,-99.99,,,-99.99,,2013-03-02 20:52:00,
2013-03-02 16:02:00,28.0,20.0,30.01,WNW,290,14.0,-999.0,70,-99.99,,,-99.99,,2013-03-02 21:02:00,
2013-03-02 16:11:00,28.0,20.0,30.01,WNW,290,14.0,-999.0,70,-99.99,,,-99.99,,2013-03-02 21:11:00,
2013-03-02 16:22:00,27.0,19.0,30.01,NW,314,12.0,-999.0,72,-99.99,,,-99.99,,2013-03-02 21:22:00,
2013-03-02 16:32:00,27.0,20.0,30.01,NW,316,13.0,-999.0,74,-99.99,,,-99.99,,2013-03-02 21:32:00,
2013-03-02 16:42:00,27.0,20.0,30.01,NW,316,13.0,-999.0,74,-99.99,,,-99.99,,2013-03-02 21:42:00,
2013-03-02 16:52:00,26.0,19.0,30.02,NNW,347,9.0,-999.0,75,-99.99,,,-99.99,,2013-03-02 21:52:00,
2013-03-02 17:02:00,26.0,20.0,30.02,NW,316,8.0,-999.0,77,-99.99,,,-99.99,,2013-03-02 22:02:00,
2013-03-02 17:11:00,26.0,20.0,30.02,NW,316,8.0,-999.0,77,-99.99,,,-99.99,,2013-03-02 22:11:00,
2013-03-02 17:22:00,25.0,19.0,30.03,NNW,343,10.0,-999.0,76,-99.99,,,-99.99,,2013-03-02 22:22:00,
2013-03-02 17:32:00,25.0,19.0,30.03,North,351,10.0,-999.0,77,-99.99,,,-99.99,,2013-03-02 22:32:00,
2013-03-02 17:42:00,25.0,19.0,30.03,North,351,10.0,-999.0,77,-99.99,,,-99.99,,2013-03-02 22:42:00,
2013-03-02 17:52:00,25.0,19.0,30.03,NNW,338,10.0,-999.0,76,-99.99,,,-99.99,,2013-03-02 22:52:00,
2013-03-02 18:01:00,25.0,19.0,30.04,North,349,8.0,-999.0,77,-99.99,,,-99.99,,2013-03-02 23:01:00,
2013-03-02 18:11:00,24.0,18.0,30.04,NW,317,7.0,-999.0,78,-99.99,,,-99.99,,2013-03-02 23:11:00,
2013-03-02 18:21:00,24.0,18.0,30.04,NW,317,7.0,-999.0,78,-99.99,,,-99.99,,2013-03-02 23:21:00,
2013-03-02 18:32:00,24.0,18.0,30.05,NW,317,8.0,-999.0,79,-99.99,,,-99.99,,2013-03-02 23:32:00,
2013-03-02 18:42:00,24.0,18.0,30.05,NW,317,8.0,-999.0,79,-99.99,,,-99.99,,2013-03-02 23:42:00,
2013-03-02 18:52:00,24.0,18.0,30.05,West,277,13.0,-999.0,78,-99.99,,,-99.99,,2013-03-02 23:52:00,
2013-03-02 19:02:00,24.0,18.0,30.05,NW,311,13.0,-999.0,78,-99.99,,,-99.99,,2013-03-03 00:02:00,
2013-03-02 19:11:00,24.0,18.0,30.05,NW,311,13.0,-999.0,78,-99.99,,,-99.99,,2013-03-03 00:11:00,
2013-03-02 19:22:00,23.0,17.0,30.06,WNW,289,12.0,-999.0,78,-99.99,,,-99.99,,2013-03-03 00:22:00,
2013-03-02 19:32:00,23.0,17.0,30.06,NW,323,11.0,-999.0,78,-99.99,,,-99.99,,2013-03-03 00:32:00,
2013-03-02 19:42:00,23.0,17.0,30.06,NW,323,11.0,-999.0,78,-99.99,,,-99.99,,2013-03-03 00:42:00,
2013-03-02 19:52:00,23.0,17.0,30.07,NW,311,10.0,-999.0,78,-99.99,,,-99.99,,2013-03-03 00:52:00,
2013-03-02 20:01:00,23.0,17.0,30.07,West,276,9.0,-999.0,79,-99.99,,,-99.99,,2013-03-03 01:01:00,
2013-03-02 20:11:00,23.0,17.0,30.07,West,276,9.0,-999.0,79,-99.99,,,-99.99,,2013-03-03 01:11:00,
2013-03-02 20:21:00,23.0,17.0,30.07,WNW,285,10.0,-999.0,79,-99.99,,,-99.99,,2013-03-03 01:21:00,
2013-03-02 20:32:00,23.0,17.0,30.07,NW,309,10.0,-999.0,79,-99.99,,,-99.99,,2013-03-03 01:32:00,
2013-03-02 20:42:00,23.0,17.0,30.07,NW,309,10.0,-999.0,79,-99.99,,,-99.99,,2013-03-03 01:42:00,
2013-03-02 20:52:00,23.0,17.0,30.08,NNW,333,8.0,-999.0,79,-99.99,,,-99.99,,2013-03-03 01:52:00,
2013-03-02 21:01:00,23.0,17.0,30.08,NW,307,10.0,-999.0,78,-99.99,,,-99.99,,2013-03-03 02:01:00,
2013-03-02 21:11:00,23.0,17.0,30.08,NW,307,10.0,-999.0,78,-99.99,,,-99.99,,2013-03-03 02:11:00,
2013-03-02 21:21:00,22.0,16.0,30.09,WNW,282,10.0,-999.0,77,-99.99,,,-99.99,,2013-03-03 02:21:00,
2013-03-02 21:32:00,22.0,16.0,30.09,WNW,291,9.0,-999.0,79,-99.99,,,-99.99,,2013-03-03 02:32:00,
2013-03-02 21:42:00,22.0,16.0,30.09,WNW,291,9.0,-999.0,79,-99.99,,,-99.99,,2013-03-03 02:42:00,
2013-03-02 21:52:00,22.0,17.0,30.09,NW,321,10.0,-999.0,80,-99.99,,,-99.99,,2013-03-03 02:52:00,
2013-03-02 22:01:00,22.0,17.0,30.09,NW,309,7.0,-999.0,80,-99.99,,,-99.99,,2013-03-03 03:01:00,
2013-03-02 22:11:00,22.0,17.0,30.09,NW,309,7.0,-999.0,80,-99.99,,,-99.99,,2013-03-03 03:11:00,
2013-03-02 22:21:00,22.0,16.0,30.09,NNW,338,9.0,-999.0,79,-99.99,,,-99.99,,2013-03-03 03:21:00,
2013-03-02 22:32:00,22.0,17.0,30.09,WNW,296,11.0,-999.0,80,-99.99,,,-99.99,,2013-03-03 03:32:00,
2013-03-02 22:42:00,22.0,17.0,30.09,WNW,296,11.0,-999.0,80,-99.99,,,-99.99,,2013-03-03 03:42:00,
2013-03-02 22:52:00,22.0,17.0,30.09,NW,326,8.0,-999.0,82,-99.99,,,-99.99,,2013-03-03 03:52:00,
2013-03-02 23:01:00,22.0,17.0,30.09,West,281,9.0,-999.0,82,-99.99,,,-99.99,,2013-03-03 04:01:00,
2013-03-02 23:11:00,22.0,17.0,30.09,West,281,9.0,-999.0,82,-99.99,,,-99.99,,2013-03-03 04:11:00,
2013-03-02 23:21:00,21.0,17.0,30.09,NW,316,9.0,-999.0,83,-99.99,,,-99.99,,2013-03-03 04:21:00,
2013-03-02 23:32:00,21.0,17.0,30.09,NW,321,9.0,-999.0,84,-99.99,,,-99.99,,2013-03-03 04:32:00,
2013-03-02 23:42:00,21.0,17.0,30.09,NW,321,9.0,-999.0,84,-99.99,,,-99.99,,2013-03-03 04:42:00,
2013-03-02 23:51:00,21.0,17.0,30.08,NNW,343,8.0,-999.0,84,-99.99,,,-99.99,,2013-03-03 04:51:00,